This demonstration page uses our WeatherBlox Daily Observations layout. Learn more.

Left ArrowRight Arrow

39.01783, -85.05884

Hourly Observations for October 28, 2016

Temp ( °F °C ) Dew Point ( °F °C ) Humidity (%) Winds ( mph kmh ) Pressure ( in mb ) Visibility ( mi km ) Precip ( " mm )
12:52 am 00:52 Mostly Cloudy 48 8.9 45 7.2 89 89 N 5 7 30.27 1025 10 16 0.00 0.00
1:52 am 01:52 Mostly Cloudy 47 8.3 44 6.7 90 90 NNE 5 7 30.28 1025 10 16 0.00 0.00
2:52 am 02:52 Cloudy 49 9.4 43 6.1 80 80 NE 5 7 30.27 1025 10 16 0.00 0.00
3:52 am 03:52 Mostly Cloudy 48 8.9 42 5.6 80 80 E 3 6 30.27 1025 10 16 0.00 0.00
4:52 am 04:52 Partly Cloudy 47 8.3 43 6.1 86 86 Calm 30.28 1025 10 16 0.00 0.00
5:52 am 05:52 Mostly Cloudy 45 7.2 41 5 86 86 Calm 30.29 1026 10 16 0.00 0.00
6:52 am 06:52 Partly Cloudy 45 7.2 41 5 86 86 Calm 30.31 1026 10 16 0.00 0.00
7:52 am 07:52 Partly Cloudy 44 6.7 41 5 89 89 Calm 30.32 1027 9 14 0.00 0.00
8:52 am 08:52 Partly Cloudy 45 7.2 42 5.6 90 90 E 3 6 30.33 1027 9 14 0.00 0.00
9:52 am 09:52 Mostly Sunny 50 10 43 6.1 77 77 SE 10 17 30.34 1027 10 16 0.00 0.00
10:52 am 10:52 Partly Cloudy 53 11.7 43 6.1 69 69 SE 7 11 30.34 1027 10 16 0.00 0.00
11:52 am 11:52 Mostly Cloudy 55 12.8 45 7.2 69 69 S 6 9 30.33 1027 10 16 0.00 0.00
12:52 pm 12:52 Partly Cloudy 58 14.4 46 7.8 65 65 SE 9 15 30.30 1026 10 16 0.00 0.00
1:52 pm 13:52 Partly Cloudy 61 16.1 46 7.8 58 58 SSE 8 13 30.27 1025 10 16 0.00 0.00
2:52 pm 14:52 Mostly Cloudy 63 17.2 47 8.3 56 56 S 8 13 30.23 1024 10 16 0.00 0.00
3:52 pm 15:52 Mostly Cloudy 64 17.8 47 8.3 54 54 S 8 13 30.21 1023 10 16 0.00 0.00
4:52 pm 16:52 Mostly Cloudy 65 18.3 47 8.3 52 52 SSW 8 13 30.19 1023 10 16 0.00 0.00
5:52 pm 17:52 Mostly Cloudy 63 17.2 49 9.4 60 60 S 6 9 30.18 1022 10 16 0.00 0.00
6:52 pm 18:52 Mostly Cloudy 61 16.1 47 8.3 60 60 S 3 6 30.18 1022 10 16 0.00 0.00
7:52 pm 19:52 Mostly Cloudy 59 15 48 8.9 67 67 S 3 6 30.19 1022 10 16 0.00 0.00
8:52 pm 20:52 Partly Cloudy 55 12.8 48 8.9 77 77 S 5 7 30.18 1022 10 16 0.00 0.00
9:52 pm 21:52 Partly Cloudy 57 13.9 47 8.3 69 69 SSW 6 9 30.17 1022 10 16 0.00 0.00
10:52 pm 22:52 Mostly Clear 53 11.7 46 7.8 77 77 S 6 9 30.16 1021 10 16 0.00 0.00
11:52 pm 23:52 Partly Cloudy 56 13.3 47 8.3 72 72 SSW 7 11 30.15 1021 10 16 0.00 0.00

Powered by AerisWeather